Hourly Data Report for September 14, 2017

All times are specified in Local Standard Time (LST). Add 1 hour to adjust for Daylight Saving Time where and when it is observed.

CAPE DORSET A
NUNAVUT

64°13'49.000" N
76°31'30.000" W
48.20 m
2400637
71366
YTE

Related Data

No related data is available for this station

Download Data

Hourly Data (September 2017)
Hourly Data Report for September 14, 2017
Temp Definition
°C
Dew Point Temp Definition
°C
Rel Hum Definition
%
Wind Dir Definition
10's deg

Wind Spd Definition
km/h
Visibility Definition
km
Stn Press Definition
kPa
Hmdx Definition


Wind Chill Definition


Weather Definition


TIME
00:00 Legend Double Dagger 2.0 1.1 94 36 13 16.1 99.49     LegendNANA
01:00 Legend Double Dagger 2.1 1.4 95 36 26 16.1 99.49     LegendNANA
02:00 Legend Double Dagger 2.1 1.2 94 35 17 16.1 99.51     LegendNANA
03:00 Legend Double Dagger 2.2 1.2 93 36 26 16.1 99.49     LegendNANA
04:00 Legend Double Dagger 2.1 1.1 93 36 32 16.1 99.46     Rain
05:00 Legend Double Dagger 2.1 1.2 94 36 34 16.1 99.45     Rain
06:00 Legend Double Dagger 2.3 1.7 96 2 22 16.1 99.49     Rain
07:00 Legend Double Dagger 2.3 1.9 97 2 28 16.1 99.53     LegendNANA
08:00 Legend Double Dagger 2.2 1.5 95 3 28 16.1 99.55     LegendNANA
09:00 Legend Double Dagger 2.4 1.5 94 2 22 16.1 99.58     Rain
10:00 Legend Double Dagger 2.6 1.6 93 1 32 16.1 99.58     Rain
11:00 Legend Double Dagger 2.6 1.6 93 1 28 16.1 99.59     Rain
12:00 Legend Double Dagger 2.6 1.7 94 36 28 16.1 99.62     Rain
13:00 Legend Double Dagger 2.8 1.9 94 36 28 16.1 99.65     Rain
14:00 Legend Double Dagger 2.8 1.9 94 36 26 16.1 99.67     LegendNANA
15:00 Legend Double Dagger 3.0 2.1 94 36 21 16.1 99.72     LegendNANA
16:00 Legend Double Dagger 3.2 2.3 94 35 26 16.1 99.77     LegendNANA
17:00 Legend Double Dagger 3.1 2.1 93 35 24 16.1 99.83     LegendNANA
18:00 Legend Double Dagger 3.1 2.1 93 36 18 16.1 99.89     Rain
19:00 Legend Double Dagger 2.8 1.8 93 36 15 16.1 99.96     LegendNANA
20:00 Legend Double Dagger 2.6 1.3 91 36 21 16.1 100.01     Rain
21:00 Legend Double Dagger 2.7 0.8 87 3 9 16.1 100.04     LegendNANA
22:00 Legend Double Dagger 2.3 0.2 86 36 24 16.1 100.04     LegendNANA
23:00 Legend Double Dagger 1.9 -0.3 85 35 17 16.1 100.10     LegendNANA

Notes on Data Quality.

Legend

  • E = Estimated
  • M = Missing
  • NA = Not Available
  • ‡ = Partner data that is not subject to review by the National Climate Archives
Date modified: